Location: Castelbiague
(43.0361°N, 0.9246°E)
Time: 20:45:03
(UTC+00:00)

Meteor 1-4 Rocket - Pass Details

Date: 24 October 2021
Orbit: 447 x 496 km, 81.2° (Epoch: 04 December)

Event Time Altitude Azimuth Distance (km) Brightness Sun altitude
Rises 04:45:11 0° 0° (N) 2,468 6.2 -18.1°
Reaches altitude 10° 04:47:27 10° 12° (NNE) 1,596 5.3 -17.7°
Maximum altitude 04:50:31 29° 74° (ENE) 876 4.6 -17.1°
Drops below altitude 10° 04:53:36 10° 136° (SE) 1,604 5.8 -16.6°
Sets 04:55:52 0° 148° (SSE) 2,482 6.6 -16.2°
